Location: Altoona
(40.5167°N, 78.4000°W)
Time: 15:27:13
(UTC-04:00)

Cosmos 1486 Rocket - Pass Details

Date: 21 August 2017
Orbit: 759 x 783 km, 74.1° (Epoch: 24 September)

Event Time Altitude Azimuth Distance (km) Brightness Sun altitude
Rises 22:18:07 0° 341° (NNW) 3,246 8.2 -23.4°
Reaches altitude 10° 22:20:31 10° 343° (NNW) 2,312 7.3 -23.8°
Maximum altitude 22:25:46 79° 70° (ENE) 781 3.9 -24.5°
Enters shadow 22:26:14 72° 126° (SE) 804 3.8 -24.6°
